Meath Environmental Platform

Observations for Trim Market St

Time AQI Temp °C Hum % Pres Pa CO μg/m³ H₂S μg/m³ NO μg/m³ NO₂ μg/m³ O₃ μg/m³ SO₂ μg/m³ PM1 μg/m³ PM2.5 μg/m³ PM10 μg/m³
Wednesday 8 July 2026
17:02 1 40.3 27 67,110 0 0 0 2.36 1.93 4.82 5.7 10.02 11.94
17:01 1 40.2 27 67,094 0 0 0 11.35 0 3.52 3.56 8.36 9.29
17:00 1 40 27 67,104 0 0 0 6.48 0 4.6 4.99 9.44 11.05
16:59 1 39.9 27 67,086 0 0 0 19.02 0 2.74 5.7 8.9 10.17
16:58 1 39.8 27 67,066 0 0 0 19.75 0 1.54 4.99 9.45 11.05
16:57 1 39.7 27 67,041 0 0 0 7.45 0 3.74 4.28 8.89 11.92
16:56 1 39.5 28 67,015 0 0 0 7.65 0 3.29 4.28 7.77 8.4
16:55 1 39.4 28 67,009 0 0 0 7.93 0 4.38 2.85 7.2 7.52
16:54 1 39.2 28 67,003 0 10.61 0 17.77 0 3.2 4.28 7.74 8.4
16:53 1 39 29 66,965 0 15.19 0 24.51 0 1.79 4.28 7.73 9.27
16:52 1 38.9 29 66,955 0 15.74 0 55.32 0 0 4.28 8.27 9.27
16:51 1 38.7 29 66,937 0 14.25 0 11.37 8.01 4.76 3.56 8.27 9.27
16:50 1 38.6 29 66,920 0 17.65 0 11.98 10.58 5.19 3.56 8.26 9.27
16:49 1 38.4 29 66,930 0 20.35 0 12.52 8.99 5.06 2.85 6.62 6.65
16:46 1 38 29 66,910 0 27.63 0 14.49 3.51 5.64 4.28 9.32 11
16:44 1 38 29 66,918 0 30.2 0 16.42 11.72 5.88 4.28 8.79 10.13
16:43 1 38 29 66,914 0 31.72 0 14.83 10.43 6.6 3.56 8.25 9.27
16:39 1 38.3 29 66,961 0.61 40.64 0 19.08 1.3 6.77 4.28 7.18 7.52
16:37 1 38.4 28 66,963 0 27.48 0 13.89 7.55 6.71 4.99 9.38 11.02
16:32 1 39 28 67,047 0 37.3 0 17.2 1.02 7.34 2.14 6.68 7.52